Location: Middle Street
(51.7167°N, 0.0333°E)
Time: 02:23:40
(UTC+00:00)

Tsikada Rocket - Pass Details

Date: 20 January 2021
Orbit: 957 x 1010 km, 82.9° (Epoch: 24 February)

Event Time Altitude Azimuth Distance (km) Brightness Sun altitude
Rises 16:55:16 0° 180° (S) 3,704 7.4 -4.5°
Reaches altitude 10° 16:57:48 10° 179° (S) 2,752 6.7 -4.9°
Maximum altitude 17:04:05 73° 96° (E) 1,030 4.0 -5.8°
Drops below altitude 10° 17:10:20 10° 13° (NNE) 2,734 6.0 -6.6°
Sets 17:12:50 0° 12° (NNE) 3,678 6.7 -7.0°
